Regional Weather Roundup
Issued by NWS

Home | Current Version | Previous Version | Text Only | Print | Product List | Glossary On
Versions: 1 2 3 4 5 6 7 8 9 10 11 12 13 14 15 16 17 18 19 20 21 22 23 24 25 26 27 28 29 30 31 32 33 34 35 36 37 38 39 40 41 42 43 44 45 46 47 48 49 50
000
ASUS45 KBOU 272107
RWRCO

WEATHER ROUNDUP FOR COLORADO
NATIONAL WEATHER SERVICE DENVER/BOULDER CO
300 PM MDT SUN JUL 27 2014

NOTE: "FAIR" INDICATES FEW OR NO CLOUDS BELOW 12000 FEET WITH NO
SIGNIFICANT WEATHER AND/OR OBSTRUCTIONS TO VISIBILITY.

COZ001>005-013-030-031-272200-
...NORTHWEST COLORADO...

CITY           SKY/WX    TMP DP  RH WIND       PRES   REMARKS
CRAIG          MOSUNNY   78  44  29 SW9G18    30.35F
HAYDEN         MOSUNNY   82  28  14 W12       30.37F
MEEKER         PTSUNNY   82  43  25 SW9       30.36F
MOUNT WERNER   NOT AVBL
STEAMBOAT SPGS MOSUNNY   81  44  26 S5        30.39F
WALDEN         PTSUNNY   79  34  19 N7        30.48S
$$

COZ006>008-011-272200-
...WEST CENTRAL VALLEYS...

CITY           SKY/WX    TMP DP  RH WIND       PRES   REMARKS
GRAND JUNCTION MOSUNNY   95  46  18 W12       30.15F
MONTROSE       PTSUNNY   83  51  33 SW14      30.27R
EAGLE          MOSUNNY   82  46  28 CALM      30.35F
RIFLE          MOSUNNY   87  43  21 NW3       30.24F
DELTA          PTSUNNY   97  47  18 SE12      30.17F
NUCLA          PTSUNNY   91  41  17 W13       30.29S
$$

COZ017>023-064>068-272200-
...SOUTHWEST COLORADO...

CITY           SKY/WX    TMP DP  RH WIND       PRES   REMARKS
DURANGO        MOSUNNY   88  41  19 VRB6      30.29F
CORTEZ         SUNNY     91  40  16 VRB7      30.24F
PAGOSA SPRINGS MOSUNNY   83  37  19 NE9G17    30.40F
TELLURIDE      CLOUDY    66  52  59 SE7       30.56F THUNDER
WOLF CREEK PAS NOT AVBL
$$

COZ009-010-012-014-032>034-037-058>063-272200-
...CENTRAL COLORADO...

CITY           SKY/WX    TMP DP  RH WIND       PRES   REMARKS
ASPEN          MOSUNNY   83  39  21 NW15G21   30.41F
BUENA VISTA    PTSUNNY   77  41  27 E14       30.46R
COPPER MTN     CLOUDY    64  39  39 NW6       30.80S
BERTHOUD PASS  CLOUDY    50  36  57 E8        30.85F THUNDER
COTTONWOOD PAS PTSUNNY   75  30  19 SE10G18   30.61F
GUNNISON       CLOUDY    75  45  33 W5        30.46R THUNDER
KREMMLING      CLOUDY    79  25  13 NW8G22    30.42F
LEADVILLE      PTSUNNY   70  37  29 S5        30.58F
MONARCH PASS   CLOUDY    55  43  62 E17       30.89F
SALIDA         PTSUNNY  N/A N/A N/A SE17G24   30.50R
SUNLIGHT       MOSUNNY   66  46  48 NW6       30.71F
WILKERSON PASS NOT AVBL
$$

COZ069>075-272200-
...SAN LUIS VALLEY/SANGRE DE CRISTO MOUNTAINS...

CITY           SKY/WX    TMP DP  RH WIND       PRES   REMARKS
ALAMOSA        PTSUNNY   79  52  38 SE13G29   30.41S
LA VETA PASS   CLOUDY    66  50  55 E14G23    30.67S THUNDER
SAGUACHE       LGT RAIN  72  50  46 N7        30.46R
$$

COZ035-036-038>040-272200-
...NORTHERN COLORADO FRONT RANGE...

CITY           SKY/WX    TMP DP  RH WIND       PRES   REMARKS
DENVER INTL AP PTSUNNY   83  55  38 SW8       30.34F
DMNS CITY PARK   N/A     83  55  38 SE6       30.33F
AURORA         MOSUNNY   80  59  48 CALM      30.36F
FRONT RANGE AP MOSUNNY   84  57  39 SW7       30.35
ERIE MUNI ARPT MOSUNNY   80  58  46 N8        30.32F
BOULDER MUN AP MOSUNNY   81  57  44 NE5       30.34F
CENTENNIAL     MOSUNNY   79  56  45 NW8       30.37F
BROOMFIELD     PTSUNNY   77  57  50 N7        30.37F
FORT COLLINS   MOSUNNY   79  61  53 NE10      30.32F
LONGMONT       MOSUNNY   86  58  38 N7        30.34F
$$

COZ041-046-047-076>085-087-088-272200-
...PIKES PEAK/PALMER DIVIDE AND SOUTHERN FOOTHILLS...

CITY           SKY/WX    TMP DP  RH WIND       PRES   REMARKS
COLO. SPRINGS  PTSUNNY   80  52  37 S9        30.40F
A. F. ACADEMY  PTSUNNY   75  56  52 S9        30.41F
ELLICOTT       PTSUNNY   79  54  41 SE10      30.39F
FALCON         PTSUNNY   75  53  44 SE9       30.46S
FORT CARSON    PTSUNNY   81  55  40 SE6       30.37F
LIMON          MOSUNNY   84  50  30 SE10G22   30.35F
MONUMENT HILL  MOSUNNY   72  54  53 SE9G18    30.45S
TRINIDAD       MOSUNNY   84  52  33 E7        30.32F
$$

COZ042>045-048>051-090-091-272200-
...NORTHEAST COLORADO...

CITY           SKY/WX    TMP DP  RH WIND       PRES   REMARKS
GREELEY ARPT   MOSUNNY   84  55  37 NE15      30.30F
AKRON          SUNNY     85  47  26 SE13G22   30.32F
BURLINGTON     SUNNY     84  48  28 SE15G23   30.30F
WRAY             N/A     89  43  20 E9G16     30.28F
STERLING       MOSUNNY   86  52  30 SW9       30.28F
HOLYOKE        SUNNY     86  48  26 S7        30.30F
FORT MORGAN    SUNNY     87  48  26 E14G21    30.30F
$$

COZ086-089-092>099-272200-
...SOUTHEAST COLORADO...

CITY           SKY/WX    TMP DP  RH WIND       PRES   REMARKS
PUEBLO         MOSUNNY   85  59  41 SE12G22   30.28F
LA JUNTA       MOSUNNY   89  62  40 E13G23    30.26F
LAMAR          MOSUNNY   85  63  47 E15       30.24F
SPRINGFIELD      N/A     86  64  47 SE12      30.27S
$$


USA.gov is the U.S. government's official web portal to all federal, state and local government web resources and services.